Regional Weather Roundup
Issued by NWS Wilmington, NC

Home | Current Version | Previous Version | Text Only | Print | Product List | Glossary On
Versions: 1 2 3 4 5 6 7 8 9 10 11 12 13 14 15 16 17 18 19 20 21 22 23 24 25 26 27
000
ASUS42 KILM 310413
RWRILM
RWRILM
REGIONAL HOURLY WEATHER ROUNDUP
NATIONAL WEATHER SERVICE WILMINGTON NC
1200 AM EDT TUE MAY 31 2016

NOTE: "FAIR" INDICATES FEW OR NO CLOUDS BELOW 12,000 FEET WITH NO
SIGNIFICANT WEATHER AND/OR OBSTRUCTIONS TO VISIBILITY.

...............WFO WILMINGTON COUNTY WARNING AREA...............

......COASTAL NC AND SC COUNTIES......

CITY           SKY/WX    TMP DP  RH WIND       PRES   REMARKS
WILMINGTON     MOCLDY    72  70  93 E6        29.91F
N MYRTLE BEACH PTCLDY    75  69  81 E3        29.90F
MYRTLE BEACH   CLEAR     73  64  73 E3        29.92S

......INLAND NC AND SC COUNTIES.......

CITY           SKY/WX    TMP DP  RH WIND       PRES   REMARKS
LUMBERTON      CLOUDY    72  69  90 N3        29.91F
ELIZABETHTOWN  PTCLDY    71  71 100 CALM      29.91F
WHITEVILLE     CLEAR     71  70  96 CALM      29.90F
FLORENCE       PTCLDY    73  70  90 N5        29.92F
DARLINGTON     PTCLDY    71  70  96 N6        29.93F
KINGSTREE      CLOUDY    70  68  94 CALM      29.91S FOG
HARTSVILLE     FAIR      70  68  94 NE8       29.92F
BENNETTSVILLE  MOCLDY    72  72 100 CALM      29.93F
CONWAY         FAIR      70  68  94 CALM      29.90F
GEORGETOWN     CLOUDY    70  70 100 NE5       29.90S
MARION         MOCLDY    72  68  88 NW3       29.91F

....................REST OF NORTH CAROLINA......................

.........EASTERN NC.........

CITY           SKY/WX    TMP DP  RH WIND       PRES   REMARKS
CAPE HATTERAS  CLOUDY    72  70  93 NW3       29.94F
JACKSONVILLE   PTCLDY    71  70  96 N5        29.93F
MOREHEAD CITY  CLOUDY    73  71  93 E3        29.93F
KENANSVILLE    CLOUDY    71  71  98 E3        29.93F
NEW BERN       MOCLDY    72  70  93 NE5       29.94F
ELIZABETH CITY CLOUDY    71  68  90 CALM      29.95F

.........CENTRAL NC.........

CITY           SKY/WX    TMP DP  RH WIND       PRES   REMARKS
RALEIGH DURHAM LGT RAIN  71  70  96 CALM      29.96S
ROCKY MOUNT    CLOUDY    71  70  96 CALM      29.95F
ROANOKE RAPIDS NOT AVBL
FAYETTEVILLE   CLOUDY    72  70  93 N6        29.92F
HOFFMAN        MOCLDY    70  69  95 N3        29.94S

.........WESTERN NC.........

CITY           SKY/WX    TMP DP  RH WIND       PRES   REMARKS
CHARLOTTE      PTCLDY    73  65  75 E5        29.97S
GREENSBORO     CLOUDY    72  67  84 SE5       29.97S
HICKORY        NOT AVBL
BOONE          NOT AVBL
ASHEVILLE      NOT AVBL

.....................REST OF SOUTH CAROLINA.....................

.........EASTERN SC.........

CITY           SKY/WX    TMP DP  RH WIND       PRES   REMARKS
CHARLESTON     LGT RAIN  72  70  93 NW7       29.90S
BEAUFORT MCAS  CLOUDY    73  70  90 CALM      29.92F
HILTON HEAD    LGT RAIN  73  73 100 CALM      29.93F

.........CENTRAL SC.........

CITY           SKY/WX    TMP DP  RH WIND       PRES   REMARKS
COLUMBIA       PTCLDY    75  69  81 N7        29.92S
ORANGEBURG     PTCLDY    71  69  93 CALM      29.92F
SUMTER SHAW    PTCLDY    71  70  96 N5        29.90S

.........WESTERN SC.........

CITY           SKY/WX    TMP DP  RH WIND       PRES   REMARKS
GREENVILLE     NOT AVBL
ROCK HILL      NOT AVBL
ANDERSON       CLOUDY    72  63  73 NE3       29.96S
CLEMSON        NOT AVBL
GREENWOOD      CLOUDY    71  65  81 N5        29.96F


...................COASTAL AND OFFSHORE REPORTS..................

................LOCAL PIERS AND NC RESERVE................


STATION/POSITION TIME  SKY/WX   TEMP    WIND        PRES    VSBY
                                AIR SEA DIR/SP/G
                 (UTC)          (F)     (DEG/KT/KT) (MB)    (MI)
JOHNY MRCER PIER 0300               80                N/A
NC RESRV MASNBRO NOT AVBL
OCEAN CREST PIER NOT AVBL
SPRINGMAID  PIER 0300               79                N/A


................COASTAL AND OFFSHORE BUOYS................


STATION/POSITION TIME  SKY/WX   TEMP    WIND        PRES    VSBY
                                AIR SEA DIR/SP/G
                 (UTC)          (F)     (DEG/KT/KT) (MB)    (MI)
DIMNDSHOAL 41025 0350            77 80  230/ 12/ 14 1013.7F
WVE H/P(F/S)=  5/ 7 SWL H/P/D(F/S/D)=  5/170/ 7

CAPE LOOKOUT     0400            75     120/  5/  5 1013.2F
ONSLOW BAY 41036 NOT AVBL
ONSLOW BAY 41064 0308            76 76  180/ 10/ 14 1013.8S
ONSLOW BAY 41159 0325               76                N/A
WVE H/P(F/S)=  5/ 8

5SE WRITBC 41038 NOT AVBL
MASNBO INL 41110 0306               77                N/A
WVE H/P(F/S)=  4/ 7

WILM HARBR 41108 0326               76                N/A
WVE H/P(F/S)=  3/ 8

27SE WRITB 41037 0308            75 76   10/  4/  8 1012.9F
FRYING PAN 41013 0300            77 78  200/  2/  4 1012.8S
SUNST NRSH 41024 0308            76 78  100/  6/ 10 1012.4S
CAPRS NRSH 41029 0308            73 76  310/ 16/ 19 1011.5F
EDISTO     41004 0350            75 77  210/  8/ 10 1011.4F
WVE H/P(F/S)=  4/ 9 SWL H/P/D(F/S/D)=  3/ 9



..........OFFSHORE BUOYS BEYOND 100 NM OFFSHORE...........
.....IN A TRIANGLE---HAT TO BERMUDA TO BAHAMAS TO HAT.....


STATION/POSITION TIME  SKY/WX   TEMP    WIND        PRES    VSBY
                                AIR SEA DIR/SP/G
                 (UTC)          (F)     (DEG/KT/KT) (MB)    (MI)
150E HAT   41001 NOT AVBL
W BERMUDA  41048 0350            76 76  130/ 16/ 19 1018.7F
WVE H/P(F/S)=  5/ 7

ATLANTIC S 41049 0350            78 78  120/ 14/ 16 1021.4F
WVE H/P(F/S)=  4/ 5 SWL H/P/D(F/S/D)=  2/140/ 8

E BAHAMAS  41046 0300            80 81  130/ 12/ 16 1017.0R
NE BAHAMAS 41047 0300            78 79   50/  6/  8 1016.5F
120E CANVRL41010 0320            80 80  190/  8/ 10 1015.4F

END




USA.gov is the U.S. government's official web portal to all federal, state and local government web resources and services.